Time,TemperatureF,DewpointF,PressureIn,WindDirection,WindDirectionDegrees,WindSpeedMPH,WindSpeedGustMPH,Humidity,HourlyPrecipIn,Conditions,Clouds,dailyrainin,SoftwareType,DateUTC
2013-05-24 00:08:00,63.6,62.0,29.84,West,280,0.0,0.0,94,0.00,,,0.00,weatherlink.com 1.10,2013-05-24 04:08:00,
2013-05-24 00:23:00,63.2,62.0,29.84,West,280,0.0,0.0,94,0.00,,,0.00,weatherlink.com 1.10,2013-05-24 04:23:00,
2013-05-24 00:38:00,62.8,61.0,29.84,West,280,0.0,0.0,94,0.00,,,0.00,weatherlink.com 1.10,2013-05-24 04:38:00,
2013-05-24 00:53:00,62.3,61.0,29.84,West,280,0.0,0.0,94,0.00,,,0.00,weatherlink.com 1.10,2013-05-24 04:53:00,
2013-05-24 01:08:00,62.2,61.0,29.84,West,280,0.0,0.0,95,0.00,,,0.00,weatherlink.com 1.10,2013-05-24 05:08:00,
2013-05-24 01:23:00,62.2,61.0,29.85,West,280,0.0,0.0,95,0.00,,,0.00,weatherlink.com 1.10,2013-05-24 05:23:00,
2013-05-24 01:38:00,62.2,61.0,29.84,West,280,0.0,1.0,95,0.00,,,0.00,weatherlink.com 1.10,2013-05-24 05:38:00,
2013-05-24 01:53:00,62.2,61.0,29.84,West,280,0.0,1.0,95,0.00,,,0.00,weatherlink.com 1.10,2013-05-24 05:53:00,
2013-05-24 02:08:00,62.1,61.0,29.83,West,280,0.0,0.0,95,0.00,,,0.00,weatherlink.com 1.10,2013-05-24 06:08:00,
2013-05-24 02:23:00,62.3,61.0,29.83,West,274,0.0,2.0,95,0.00,,,0.00,weatherlink.com 1.10,2013-05-24 06:23:00,
2013-05-24 02:38:00,62.5,61.0,29.83,West,274,0.0,2.0,95,0.00,,,0.00,weatherlink.com 1.10,2013-05-24 06:38:00,
2013-05-24 02:53:00,62.6,61.0,29.82,NW,305,0.0,3.0,95,0.00,,,0.00,weatherlink.com 1.10,2013-05-24 06:53:00,
2013-05-24 03:08:00,62.7,61.0,29.82,NW,305,0.0,1.0,95,0.00,,,0.00,weatherlink.com 1.10,2013-05-24 07:08:00,
2013-05-24 03:24:00,62.7,61.0,29.82,WNW,303,0.0,1.0,95,0.00,,,0.00,weatherlink.com 1.10,2013-05-24 07:24:00,
2013-05-24 03:39:00,62.7,61.0,29.82,WNW,303,0.0,0.0,95,0.00,,,0.00,weatherlink.com 1.10,2013-05-24 07:39:00,
2013-05-24 03:54:00,62.7,61.0,29.82,NW,309,0.0,1.0,95,0.00,,,0.00,weatherlink.com 1.10,2013-05-24 07:54:00,
2013-05-24 04:09:00,62.7,61.0,29.81,NW,309,0.0,0.0,95,0.00,,,0.00,weatherlink.com 1.10,2013-05-24 08:09:00,
2013-05-24 04:24:00,62.5,61.0,29.82,NW,309,0.0,0.0,95,0.00,,,0.00,weatherlink.com 1.10,2013-05-24 08:24:00,
2013-05-24 04:39:00,62.3,61.0,29.82,NW,305,0.0,2.0,95,0.00,,,0.00,weatherlink.com 1.10,2013-05-24 08:39:00,
2013-05-24 04:54:00,62.2,61.0,29.82,SW,227,0.0,2.0,95,0.00,,,0.00,weatherlink.com 1.10,2013-05-24 08:54:00,
2013-05-24 05:09:00,62.2,61.0,29.82,WSW,250,0.0,2.0,95,0.00,,,0.00,weatherlink.com 1.10,2013-05-24 09:09:00,
2013-05-24 05:24:00,62.1,61.0,29.83,WNW,283,0.0,1.0,95,0.00,,,0.00,weatherlink.com 1.10,2013-05-24 09:24:00,
2013-05-24 05:39:00,61.9,60.0,29.83,West,278,0.0,2.0,94,0.00,,,0.00,weatherlink.com 1.10,2013-05-24 09:39:00,
2013-05-24 05:54:00,61.8,60.0,29.84,WSW,245,0.0,3.0,94,0.00,,,0.00,weatherlink.com 1.10,2013-05-24 09:54:00,
2013-05-24 06:09:00,61.8,60.0,29.85,WSW,245,0.0,0.0,94,0.00,,,0.00,weatherlink.com 1.10,2013-05-24 10:09:00,
2013-05-24 06:24:00,61.7,60.0,29.85,WSW,245,0.0,0.0,95,0.00,,,0.00,weatherlink.com 1.10,2013-05-24 10:24:00,
2013-05-24 06:39:00,61.8,60.0,29.86,WSW,245,0.0,1.0,95,0.00,,,0.00,weatherlink.com 1.10,2013-05-24 10:39:00,
2013-05-24 06:54:00,61.8,60.0,29.86,WSW,245,0.0,0.0,95,0.00,,,0.00,weatherlink.com 1.10,2013-05-24 10:54:00,
2013-05-24 07:09:00,61.8,60.0,29.87,WSW,245,0.0,0.0,94,0.00,,,0.00,weatherlink.com 1.10,2013-05-24 11:09:00,
2013-05-24 07:24:00,61.9,60.0,29.87,WSW,245,0.0,1.0,94,0.00,,,0.00,weatherlink.com 1.10,2013-05-24 11:24:00,
2013-05-24 07:39:00,61.9,60.0,29.87,WSW,245,0.0,1.0,94,0.00,,,0.00,weatherlink.com 1.10,2013-05-24 11:39:00,
2013-05-24 07:54:00,62.2,61.0,29.88,WSW,245,0.0,1.0,94,0.00,,,0.00,weatherlink.com 1.10,2013-05-24 11:54:00,
2013-05-24 08:09:00,62.5,61.0,29.88,WSW,245,0.0,1.0,94,0.00,,,0.00,weatherlink.com 1.10,2013-05-24 12:09:00,
2013-05-24 08:24:00,62.8,61.0,29.89,WSW,240,0.0,1.0,93,0.00,,,0.00,weatherlink.com 1.10,2013-05-24 12:24:00,
2013-05-24 08:39:00,63.1,61.0,29.90,SW,233,0.0,6.0,92,0.00,,,0.00,weatherlink.com 1.10,2013-05-24 12:39:00,
2013-05-24 08:54:00,63.5,60.0,29.91,NW,307,1.0,7.0,89,0.00,,,0.00,weatherlink.com 1.10,2013-05-24 12:54:00,
2013-05-24 09:09:00,63.9,59.0,29.92,WNW,284,2.0,7.0,85,0.00,,,0.00,weatherlink.com 1.10,2013-05-24 13:09:00,
2013-05-24 09:24:00,63.6,57.0,29.93,West,269,4.0,11.0,79,0.00,,,0.00,weatherlink.com 1.10,2013-05-24 13:24:00,
2013-05-24 09:39:00,63.8,57.0,29.93,West,269,0.0,13.0,78,0.00,,,0.00,weatherlink.com 1.10,2013-05-24 13:39:00,
2013-05-24 09:54:00,64.3,56.0,29.95,WSW,255,2.0,17.0,74,0.00,,,0.00,weatherlink.com 1.10,2013-05-24 13:54:00,
2013-05-24 10:09:00,64.9,56.0,29.95,West,275,7.0,18.0,74,0.00,,,0.00,weatherlink.com 1.10,2013-05-24 14:09:00,
2013-05-24 10:24:00,65.0,54.0,29.96,West,259,2.0,11.0,68,0.00,,,0.00,weatherlink.com 1.10,2013-05-24 14:24:00,
2013-05-24 10:39:00,64.0,54.0,29.97,NW,317,4.0,14.0,70,0.00,,,0.00,weatherlink.com 1.10,2013-05-24 14:39:00,
2013-05-24 10:54:00,64.1,53.0,29.98,NW,305,14.0,20.0,68,0.01,,,0.01,weatherlink.com 1.10,2013-05-24 14:54:00,
2013-05-24 11:09:00,63.8,53.0,29.99,WSW,239,7.0,17.0,68,0.01,,,0.01,weatherlink.com 1.10,2013-05-24 15:09:00,
2013-05-24 11:24:00,63.8,52.0,30.00,West,266,8.0,17.0,66,0.01,,,0.01,weatherlink.com 1.10,2013-05-24 15:24:00,
2013-05-24 11:40:00,63.8,51.0,30.01,WNW,287,8.0,16.0,63,0.01,,,0.01,weatherlink.com 1.10,2013-05-24 15:40:00,
2013-05-24 11:55:00,65.6,53.0,30.01,WSW,248,5.0,15.0,63,0.00,,,0.01,weatherlink.com 1.10,2013-05-24 15:55:00,
2013-05-24 12:10:00,65.9,51.0,30.02,WNW,300,9.0,14.0,60,0.00,,,0.01,weatherlink.com 1.10,2013-05-24 16:10:00,
2013-05-24 12:25:00,66.2,52.0,30.02,WSW,247,3.0,16.0,60,0.00,,,0.01,weatherlink.com 1.10,2013-05-24 16:25:00,
2013-05-24 12:40:00,66.7,52.0,30.02,WNW,297,5.0,13.0,60,0.00,,,0.01,weatherlink.com 1.10,2013-05-24 16:40:00,
2013-05-24 12:55:00,66.5,50.0,30.02,WNW,303,26.0,30.0,55,0.00,,,0.01,weatherlink.com 1.10,2013-05-24 16:55:00,
2013-05-24 13:10:00,67.1,50.0,30.02,West,266,8.0,17.0,55,0.00,,,0.01,weatherlink.com 1.10,2013-05-24 17:10:00,
2013-05-24 13:40:00,67.2,50.0,30.03,NW,306,12.0,17.0,54,0.00,,,0.01,weatherlink.com 1.10,2013-05-24 17:40:00,
2013-05-24 13:55:00,67.1,48.0,30.03,SSW,210,15.0,20.0,51,0.00,,,0.01,weatherlink.com 1.10,2013-05-24 17:55:00,
2013-05-24 14:10:00,67.3,49.0,30.04,NW,314,8.0,18.0,53,0.00,,,0.01,weatherlink.com 1.10,2013-05-24 18:10:00,
2013-05-24 14:25:00,66.7,47.0,30.04,NNW,338,15.0,24.0,50,0.00,,,0.01,weatherlink.com 1.10,2013-05-24 18:25:00,
2013-05-24 14:40:00,66.8,49.0,30.04,West,270,5.0,14.0,53,0.00,,,0.01,weatherlink.com 1.10,2013-05-24 18:40:00,
2013-05-24 14:55:00,67.0,50.0,30.04,SSW,205,5.0,16.0,54,0.00,,,0.01,weatherlink.com 1.10,2013-05-24 18:55:00,
2013-05-24 15:10:00,66.5,50.0,30.05,West,269,6.0,17.0,55,0.00,,,0.01,weatherlink.com 1.10,2013-05-24 19:10:00,
2013-05-24 15:25:00,66.5,47.0,30.05,WNW,301,12.0,19.0,50,0.00,,,0.01,weatherlink.com 1.10,2013-05-24 19:25:00,
2013-05-24 15:40:00,66.1,47.0,30.05,NW,316,8.0,16.0,51,0.00,,,0.01,weatherlink.com 1.10,2013-05-24 19:40:00,
2013-05-24 15:55:00,66.3,46.0,30.06,West,275,6.0,18.0,48,0.00,,,0.01,weatherlink.com 1.10,2013-05-24 19:55:00,
2013-05-24 16:10:00,66.7,46.0,30.05,NW,312,3.0,14.0,47,0.00,,,0.01,weatherlink.com 1.10,2013-05-24 20:10:00,
2013-05-24 16:25:00,65.8,45.0,30.06,WNW,285,4.0,21.0,48,0.00,,,0.01,weatherlink.com 1.10,2013-05-24 20:25:00,
2013-05-24 16:40:00,65.7,43.0,30.06,West,261,5.0,17.0,44,0.00,,,0.01,weatherlink.com 1.10,2013-05-24 20:40:00,
2013-05-24 16:55:00,65.3,42.0,30.07,West,273,6.0,21.0,43,0.00,,,0.01,weatherlink.com 1.10,2013-05-24 20:55:00,
2013-05-24 17:10:00,65.3,43.0,30.08,West,274,3.0,16.0,45,0.00,,,0.01,weatherlink.com 1.10,2013-05-24 21:10:00,
2013-05-24 17:25:00,65.4,42.0,30.08,West,269,11.0,15.0,42,0.00,,,0.01,weatherlink.com 1.10,2013-05-24 21:25:00,
2013-05-24 17:40:00,64.9,42.0,30.08,WSW,252,2.0,18.0,43,0.00,,,0.01,weatherlink.com 1.10,2013-05-24 21:40:00,
2013-05-24 17:55:00,64.9,44.0,30.08,WNW,288,3.0,19.0,47,0.00,,,0.01,weatherlink.com 1.10,2013-05-24 21:55:00,
2013-05-24 18:10:00,65.0,42.0,30.08,WNW,284,1.0,16.0,44,0.00,,,0.01,weatherlink.com 1.10,2013-05-24 22:10:00,
2013-05-24 18:25:00,64.3,39.0,30.08,NW,307,4.0,15.0,40,0.00,,,0.01,weatherlink.com 1.10,2013-05-24 22:25:00,
2013-05-24 18:40:00,63.9,41.0,30.09,WNW,289,0.0,16.0,43,0.00,,,0.01,weatherlink.com 1.10,2013-05-24 22:40:00,
2013-05-24 18:55:00,63.0,41.0,30.10,NW,307,3.0,16.0,45,0.00,,,0.01,weatherlink.com 1.10,2013-05-24 22:55:00,
2013-05-24 19:10:00,62.5,40.0,30.10,West,281,4.0,12.0,44,0.00,,,0.01,weatherlink.com 1.10,2013-05-24 23:10:00,
2013-05-24 19:25:00,62.0,41.0,30.11,NW,309,2.0,10.0,47,0.00,,,0.01,weatherlink.com 1.10,2013-05-24 23:25:00,
2013-05-24 19:40:00,61.3,42.0,30.11,West,276,1.0,5.0,49,0.00,,,0.01,weatherlink.com 1.10,2013-05-24 23:40:00,
2013-05-24 19:56:00,60.7,42.0,30.12,WNW,290,0.0,5.0,50,0.00,,,0.01,weatherlink.com 1.10,2013-05-24 23:56:00,
2013-05-24 20:11:00,59.6,42.0,30.13,NW,306,0.0,5.0,52,0.00,,,0.01,weatherlink.com 1.10,2013-05-25 00:11:00,
2013-05-24 20:26:00,58.4,43.0,30.13,NW,306,0.0,1.0,58,0.00,,,0.01,weatherlink.com 1.10,2013-05-25 00:26:00,
2013-05-24 20:41:00,56.2,44.0,30.14,NW,306,0.0,2.0,63,0.00,,,0.01,weatherlink.com 1.10,2013-05-25 00:41:00,
2013-05-24 20:56:00,54.8,42.0,30.14,NW,316,0.0,3.0,63,0.00,,,0.01,weatherlink.com 1.10,2013-05-25 00:56:00,
2013-05-24 21:11:00,55.4,41.0,30.15,WSW,252,2.0,7.0,59,0.00,,,0.01,weatherlink.com 1.10,2013-05-25 01:11:00,
2013-05-24 21:26:00,55.7,41.0,30.16,NW,326,0.0,4.0,59,0.00,,,0.01,weatherlink.com 1.10,2013-05-25 01:26:00,
2013-05-24 21:41:00,55.6,40.0,30.17,WNW,292,1.0,9.0,56,0.00,,,0.01,weatherlink.com 1.10,2013-05-25 01:41:00,
2013-05-24 21:56:00,55.3,40.0,30.17,NW,316,0.0,5.0,57,0.00,,,0.01,weatherlink.com 1.10,2013-05-25 01:56:00,
2013-05-24 22:11:00,54.8,40.0,30.18,NW,307,0.0,4.0,57,0.00,,,0.01,weatherlink.com 1.10,2013-05-25 02:11:00,
2013-05-24 22:26:00,54.1,39.0,30.19,West,277,3.0,9.0,58,0.00,,,0.01,weatherlink.com 1.10,2013-05-25 02:26:00,
2013-05-24 22:41:00,53.9,39.0,30.19,West,278,3.0,8.0,57,0.00,,,0.01,weatherlink.com 1.10,2013-05-25 02:41:00,
2013-05-24 22:56:00,54.3,38.0,30.19,NW,304,3.0,8.0,55,0.00,,,0.01,weatherlink.com 1.10,2013-05-25 02:56:00,
2013-05-24 23:11:00,54.3,38.0,30.20,SW,216,0.0,8.0,54,0.00,,,0.01,weatherlink.com 1.10,2013-05-25 03:11:00,
2013-05-24 23:26:00,53.9,37.0,30.20,WNW,295,0.0,6.0,54,0.00,,,0.01,weatherlink.com 1.10,2013-05-25 03:26:00,
2013-05-24 23:41:00,53.2,40.0,30.20,WSW,255,0.0,2.0,61,0.00,,,0.01,weatherlink.com 1.10,2013-05-25 03:41:00,
2013-05-24 23:56:00,51.5,40.0,30.20,WSW,255,0.0,1.0,65,0.00,,,0.01,weatherlink.com 1.10,2013-05-25 03:56:00,